Weather Roundup
Issued by NWS Chicago, IL

Home | Current Version | Previous Version | Graphics & Text | Print | Product List | Glossary On
Versions: 1 2 3 4 5 6 7 8 9 10 11 12 13 14 15 16 17 18 19 20 21 22 23 24 25 26 27 28 29 30 31 32 33 34 35 36 37 38 39 40 41 42 43 44 45 46 47 48 49 50
000
NZUS59 KLOT 300008
HRRLOT

CHICAGO AREA WEATHER ROUNDUP
NATIONAL WEATHER SERVICE CHICAGO/ROMEOVILLE IL
700 PM CDT FRI APR 29 2016

NOTE: "FAIR" INDICATES FEW OR NO CLOUDS BELOW 12,000 FEET WITH NO
SIGNIFICANT WEATHER AND/OR OBSTRUCTIONS TO VISIBILITY.

* THESE STATIONS ARE NOT UNDER NWS QUALITY CONTROL. THEY ALSO MAY NOT
  REPORT WEATHER SUCH AS PRECIPITATION OR FOG.

ILZ005-006-012>014-019>023-300100-
NORTHEAST ILLINOIS

CITY           SKY/WX    TMP DP  RH WIND       PRES   REMARKS
OHARE          CLOUDY    45  38  76 NE10      30.12R
6HR MIN TEMP:  45; 6HR MAX TEMP:  51;

MIDWAY         CLOUDY    47  38  71 NE9       30.12R
6HR MIN TEMP:  47; 6HR MAX TEMP:  51;

AURORA         CLOUDY    49  41  74 N6        30.11S
6HR MIN TEMP:  48; 6HR MAX TEMP:  49;

LANSING*       CLOUDY    44  39  83 NE9       30.13R HAZE
JOLIET*        CLOUDY    52  42  69 NE8       30.11R
WAUKEGAN       MOCLDY    43  36  76 NE8       30.12S
6HR MIN TEMP:  43; 6HR MAX TEMP:  47;

DUPAGE AIRPORT CLOUDY    48  38  68 NE7       30.10S
6HR MIN TEMP:  46; 6HR MAX TEMP:  51;

WHEELING       CLOUDY    44  37  76 NE7       30.14R
6HR MIN TEMP:  43; 6HR MAX TEMP:  48;

KANKAKEE*      CLOUDY    51  42  71 NE10      30.10R
MORRIS*        CLOUDY    50  42  74 N5        30.09R
LEWIS AIRPORT* CLOUDY    49  39  69 E9        30.11R
$$

WIZ051-052-058>065-066-070>072-300100-
SOUTHEAST WISCONSIN

CITY           SKY/WX    TMP DP  RH WIND       PRES   REMARKS
MILWAUKEE      MOCLDY    43  35  73 NE7       30.14S
6HR MIN TEMP:  43; 6HR MAX TEMP:  47;

KENOSHA*       CLEAR     46  37  71 NE10      30.12F
RACINE*        PTCLDY    43  35  73 NE12      30.14F
BURLINGTON     CLEAR     47  36  65 NE8       30.11F
WAUKESHA       CLEAR     46  34  61 NE8       30.13F
WEST BEND      MOCLDY    46  34  61 E7        30.15R
$$

INZ001>003-010>013-019-020-300100-
NORTHWEST INDIANA

CITY           SKY/WX    TMP DP  RH WIND       PRES   REMARKS
GARY*          CLOUDY    45  45 100 N6        30.14S
MICHIGAN CITY* NOT AVBL
RENSSELAER*    NOT AVBL
VALPARAISO     CLOUDY    45  41  86 N5        30.12R
$$

LMZ740>746-300100-
SOUTHERN LAKE MICHIGAN

STATION/POSITION TIME  SKY/WX   TEMP WIND        PRES    VSBY
                                AIR  DIR/SP/G
                 (UTC)          (F)  (DEG/KT/KT) (MB)    (MI)
HARRISON CRIB    2300            41   10/ 11/ 11   N/A
BURNHAM HARBOR   0000            41   10/  7/ 11   N/A
CALUMET HARBOR   2300            42              1019.5R
BURNS HARBOR     2340            42   10/ 10/ 11 1020.3F
MICHIGAN CITY    2300            42  350/  9/ 11   N/A
$$

ABBREVIATIONS USED IN REMARKS
   TC - TEMPERATURE IN CELSIUS
  WCI - WIND CHILL INDEX
   HX - HEAT INDEX
  VSB - VISIBILITY
$$



USA.gov is the U.S. government's official web portal to all federal, state and local government web resources and services.